Location: Newark
(52.3735°N, 16.9806°E)
Time: 20:19:39
(UTC+00:00)

ISS - Visible Passes

Search period start: 26 September 2021 00:00
Search period end: 06 October 2021 00:00
Orbit: 417 x 423 km, 51.6° (Epoch: 26 September)

Date Brightness Start Highest point End Pass type
(mag) Time Alt. Az. Time Alt. Az. Time Alt. Az.
26 Sep -3.7 17:27:59 10° W 17:31:21 79° S 17:34:21 13° E visible
26 Sep -2.8 19:04:46 10° W 19:07:19 44° WSW 19:07:19 44° WSW visible
27 Sep -3.7 18:17:31 10° W 18:20:52 70° SSW 18:21:49 43° ESE visible
27 Sep -0.6 19:54:29 10° W 19:54:47 12° W 19:54:47 12° W visible
28 Sep -3.7 17:30:19 10° W 17:33:41 77° S 17:36:22 15° E visible
28 Sep -2.1 19:07:10 10° W 19:09:20 29° WSW 19:09:20 29° WSW visible
29 Sep -3.1 18:19:58 10° W 18:23:14 46° SSW 18:23:58 38° SSE visible
30 Sep -3.4 17:32:51 10° W 17:36:10 58° SSW 17:38:41 16° ESE visible
30 Sep -1.3 19:10:04 10° W 19:11:40 18° WSW 19:11:40 18° WSW visible
01 Oct -2.2 18:22:46 10° W 18:25:40 26° SSW 18:26:28 24° S visible
02 Oct -2.5 17:35:39 10° W 17:38:46 35° SSW 17:41:23 13° SE visible
03 Oct -1.1 18:26:23 10° WSW 18:28:07 13° SW 18:29:26 11° SSW visible
04 Oct -1.4 17:38:57 10° W 17:41:24 19° SW 17:43:51 10° S visible
05 Oct -1.7 16:51:50 10° W 16:54:41 25° SSW 16:57:32 10° SSE visible
